TimeCST,TemperatureF,Dew PointF,Humidity,Sea Level PressureIn,VisibilityMPH,Wind Direction,Wind SpeedMPH,Gust SpeedMPH,PrecipitationIn,Events,Conditions,WindDirDegrees,DateUTC
12:15 AM,46.6,35.1,64,30.11,10.0,WSW,13.8,-,N/A,,Clear,250,2013-01-20 06:15:00
12:35 AM,46.2,35.2,66,30.11,10.0,WSW,11.5,-,N/A,,Clear,250,2013-01-20 06:35:00
12:55 AM,45.9,35.6,67,30.11,10.0,WSW,11.5,-,N/A,,Clear,250,2013-01-20 06:55:00
1:15 AM,45.9,35.8,68,30.12,10.0,West,12.7,19.6,N/A,,Clear,260,2013-01-20 07:15:00
1:35 AM,45.5,36.1,70,30.13,10.0,West,11.5,-,N/A,,Clear,260,2013-01-20 07:35:00
1:55 AM,45.1,36.1,71,30.14,10.0,West,12.7,-,N/A,,Clear,260,2013-01-20 07:55:00
2:15 AM,44.6,36.1,72,30.14,10.0,West,11.5,-,N/A,,Clear,270,2013-01-20 08:15:00
2:35 AM,43.7,36.0,74,30.14,10.0,West,10.4,-,N/A,,Clear,260,2013-01-20 08:35:00
2:55 AM,43.2,36.0,76,30.15,10.0,West,10.4,-,N/A,,Clear,260,2013-01-20 08:55:00
3:15 AM,42.8,36.0,77,30.15,10.0,West,8.1,-,N/A,,Clear,280,2013-01-20 09:15:00
3:35 AM,41.9,35.8,79,30.15,10.0,West,9.2,-,N/A,,Clear,260,2013-01-20 09:35:00
3:55 AM,41.4,35.6,80,30.16,10.0,West,4.6,-,N/A,,Clear,270,2013-01-20 09:55:00
4:15 AM,40.3,35.2,82,30.16,10.0,West,6.9,-,N/A,,Clear,270,2013-01-20 10:15:00
4:35 AM,40.1,35.2,83,30.17,10.0,West,6.9,-,N/A,,Clear,270,2013-01-20 10:35:00
4:55 AM,39.4,34.7,83,30.17,10.0,West,5.8,-,N/A,,Clear,280,2013-01-20 10:55:00
5:15 AM,40.1,35.2,83,30.18,10.0,NW,5.8,-,N/A,,Clear,320,2013-01-20 11:15:00
5:35 AM,40.3,35.1,82,30.20,10.0,NNW,5.8,-,N/A,,Clear,330,2013-01-20 11:35:00
5:55 AM,39.9,34.2,80,30.20,10.0,NNW,5.8,-,N/A,,Clear,330,2013-01-20 11:55:00
6:15 AM,39.0,33.4,80,30.21,10.0,NNW,8.1,-,N/A,,Clear,340,2013-01-20 12:15:00
6:35 AM,38.7,33.1,80,30.23,10.0,North,8.1,-,N/A,,Clear,360,2013-01-20 12:35:00
7:15 AM,38.7,32.0,77,30.24,10.0,NNW,4.6,-,N/A,,Clear,330,2013-01-20 13:15:00
7:35 AM,38.3,32.0,78,30.25,10.0,NNW,6.9,-,N/A,,Clear,330,2013-01-20 13:35:00
7:55 AM,38.8,32.0,76,30.26,10.0,North,11.5,-,N/A,,Clear,350,2013-01-20 13:55:00
8:15 AM,38.3,32.0,78,30.27,10.0,North,13.8,-,N/A,,Clear,10,2013-01-20 14:15:00
8:35 AM,37.9,28.4,69,30.28,10.0,North,12.7,18.4,N/A,,Clear,350,2013-01-20 14:35:00
8:55 AM,38.3,28.0,67,30.29,10.0,North,11.5,-,N/A,,Clear,350,2013-01-20 14:55:00
9:15 AM,38.7,27.0,63,30.29,10.0,North,11.5,-,N/A,,Clear,360,2013-01-20 15:15:00
9:35 AM,38.8,26.2,61,30.30,10.0,North,11.5,-,N/A,,Clear,350,2013-01-20 15:35:00
9:55 AM,39.2,26.2,60,30.31,10.0,North,9.2,-,N/A,,Clear,360,2013-01-20 15:55:00
10:15 AM,39.2,25.2,57,30.31,10.0,North,9.2,-,N/A,,Clear,360,2013-01-20 16:15:00
10:35 AM,39.6,23.0,52,30.31,10.0,North,9.2,-,N/A,,Clear,10,2013-01-20 16:35:00
10:55 AM,39.9,22.8,50,30.30,10.0,NNE,8.1,-,N/A,,Clear,20,2013-01-20 16:55:00
11:15 AM,39.7,23.0,51,30.29,10.0,NNW,5.8,-,N/A,,Clear,340,2013-01-20 17:15:00
11:35 AM,40.3,23.2,51,30.28,10.0,North,8.1,-,N/A,,Clear,10,2013-01-20 17:35:00
11:55 AM,41.0,23.2,49,30.27,10.0,NNE,4.6,-,N/A,,Clear,20,2013-01-20 17:55:00
12:15 PM,41.2,23.0,48,30.26,10.0,NE,6.9,-,N/A,,Clear,40,2013-01-20 18:15:00
12:35 PM,41.4,22.5,47,30.26,10.0,North,4.6,-,N/A,,Clear,360,2013-01-20 18:35:00
12:55 PM,42.3,24.3,49,30.26,10.0,NNW,5.8,-,N/A,,Clear,330,2013-01-20 18:55:00
1:15 PM,42.4,23.4,47,30.24,10.0,NE,5.8,-,N/A,,Clear,50,2013-01-20 19:15:00
1:35 PM,42.6,19.9,40,30.24,10.0,NE,3.5,-,N/A,,Clear,40,2013-01-20 19:35:00
1:55 PM,43.0,22.5,44,30.23,10.0,Calm,Calm,-,N/A,,Clear,0,2013-01-20 19:55:00
2:15 PM,43.0,19.8,40,30.23,10.0,NNE,3.5,-,N/A,,Clear,20,2013-01-20 20:15:00
2:35 PM,43.7,19.9,39,30.22,10.0,Calm,Calm,-,N/A,,Clear,0,2013-01-20 20:35:00
2:55 PM,43.5,21.7,42,30.22,10.0,ENE,4.6,-,N/A,,Clear,60,2013-01-20 20:55:00
3:15 PM,43.7,22.8,44,30.22,10.0,NNE,4.6,-,N/A,,Clear,30,2013-01-20 21:15:00
3:35 PM,43.5,21.7,42,30.23,10.0,North,3.5,-,N/A,,Clear,360,2013-01-20 21:35:00
3:55 PM,43.2,23.0,45,30.24,10.0,North,5.8,-,N/A,,Clear,10,2013-01-20 21:55:00
4:15 PM,41.9,24.3,50,30.24,10.0,North,10.4,-,N/A,,Clear,360,2013-01-20 22:15:00
4:35 PM,40.6,21.9,47,30.25,10.0,North,11.5,-,N/A,,Clear,360,2013-01-20 22:35:00
4:55 PM,38.7,22.1,51,30.26,10.0,North,10.4,-,N/A,,Clear,350,2013-01-20 22:55:00
5:15 PM,37.4,22.8,56,30.26,10.0,North,9.2,-,N/A,,Clear,350,2013-01-20 23:15:00
5:35 PM,35.8,23.5,61,30.26,10.0,North,8.1,-,N/A,,Clear,360,2013-01-20 23:35:00
5:55 PM,34.3,23.7,65,30.26,10.0,North,6.9,-,N/A,,Clear,360,2013-01-20 23:55:00
6:15 PM,33.6,23.4,66,30.25,10.0,North,4.6,-,N/A,,Clear,10,2013-01-21 00:15:00
6:55 PM,32.0,23.9,72,30.26,10.0,North,5.8,-,N/A,,Clear,350,2013-01-21 00:55:00
7:15 PM,31.8,24.4,74,30.25,10.0,North,6.9,-,N/A,,Clear,10,2013-01-21 01:15:00
7:35 PM,32.0,23.4,70,30.25,10.0,NNE,5.8,-,N/A,,Clear,20,2013-01-21 01:35:00
7:55 PM,31.8,23.5,71,30.24,10.0,NNE,4.6,-,N/A,,Clear,20,2013-01-21 01:55:00
8:15 PM,30.2,24.3,79,30.25,10.0,North,5.8,-,N/A,,Clear,10,2013-01-21 02:15:00
8:35 PM,30.6,23.0,74,30.25,10.0,North,4.6,-,N/A,,Clear,360,2013-01-21 02:35:00
8:55 PM,30.9,21.9,69,30.24,10.0,North,4.6,-,N/A,,Clear,10,2013-01-21 02:55:00
9:15 PM,31.1,21.7,68,30.24,10.0,NNE,3.5,-,N/A,,Clear,30,2013-01-21 03:15:00
9:35 PM,30.7,22.1,70,30.23,10.0,NE,4.6,-,N/A,,Clear,40,2013-01-21 03:35:00
9:55 PM,29.3,23.0,77,30.22,10.0,NNE,5.8,-,N/A,,Clear,20,2013-01-21 03:55:00
10:15 PM,28.4,23.7,83,30.22,10.0,North,6.9,-,N/A,,Clear,10,2013-01-21 04:15:00
10:35 PM,28.4,23.2,81,30.22,10.0,North,5.8,-,N/A,,Clear,10,2013-01-21 04:35:00
10:55 PM,28.0,22.6,80,30.22,10.0,North,6.9,-,N/A,,Clear,360,2013-01-21 04:55:00
11:15 PM,28.2,23.0,81,30.22,10.0,North,6.9,-,N/A,,Clear,10,2013-01-21 05:15:00
11:35 PM,28.2,23.0,81,30.22,10.0,North,5.8,-,N/A,,Clear,360,2013-01-21 05:35:00
11:55 PM,28.0,22.1,78,30.22,10.0,North,5.8,-,N/A,,Clear,360,2013-01-21 05:55:00